Showing default

FLOCK 4BE 8, 60515

Orbit data source: Space-Track

FLOCK 4BE 8, 60515 is a payload satellite owned by Planet (US) in SSO that was launched on Fri, 16 Aug 2024 UTC via an FALCON 9 launch vehicle from the Air Force Western Test Range (AFWTR). Payload-class satellites include a variety of spacecraft equipped with specific instruments for various scientific and technological missions. These include communications satellites like Starlink; space stations such as the ISS; scientific satellites like the Hubble; Earth observation satellites from companies like Planet Labs, Umbra, and HawkEye 360; GPS; miniature CubeSats for education and research; and military/defense satellites.

Loading next visibility...
Identifier
60515, 2024-149AZ
Orbit
SSO
Country
Flag of USUS
Related business
Manufacturer
Planet
Mission
Operational Commercial Imaging
Bus & Motor
CUBESAT 3U, Unknown motor
Mass
5.7 kg wet, 5.7 kg dry
Launch date (UTC)
2024-08-16 (1 year ago)
Launch vehicle
FALCON 9
Launch site
Air Force Western Test Range (AFWTR)
Object type
Payload
Rocket body
Debris
Shape & HBR
Box + 2 Pan, 1.0 m
Radar Cross Section
0.072 m², Medium (>0.1 m² and < 1m²)

Expand to show TLE details & history
Last TLE update: 20 hours ago

TLE from 20 hours ago
0 FLOCK 4BE 8
1 60515U 24149AZ  25306.46280356  .00072563  00000-0  20409-2 0  9997
2 60515  97.3962  24.4597 0002631 350.0696  10.0495 15.36219192 67503
Epoch: 2025-11-02T11:06Z
TLE epoch observation values (Epoch: 2025-11-02T11:06:26.227Z)
Latitude
-0.00008°
Longitude
175.87225°
Altitude
458.643 km
Speed
7.638 km/s
True Right ascension
01h 37m 50s
True Declination
0° 00' 00"
Sunlit
Object was in full shadow at epoch
Visualization orbit readout
Latitude
Unknown
Longitude
Unknown
Altitude
Unknown
Speed
Unknown
Apparent Right ascension
Unknown
Apparent Declination
Unknown
Sunlit
N/A
Visualization observer readout
Local Sidereal Time
02:51:52
Azimuth
Unknown
Elevation
Unknown
Doppler factor
Unknown
Orbital elements
Apogee altitude
456.043 km
Perigee altitude
452.448 km
Semi-major axis
6,832.382 km
Eccentricity
0.00026
Inclination
97.3962°
RAAN
24.4597°
Arg. of periapsis
350.0696°
True anomaly
10.05476°
Mean anomaly
10.0495°
Eccentric anomaly
10.05213°
Mean motion
3.84313 °/min
Orbital period
93.67 mins
BSTAR
0.0020409
Loading maneuver chart data...
Computing Atmospheric mass density...
Loading historical data...
Loading historical data...
Loading historical data...
Loading historical data...
Loading historical data...
Loading historical data...
Loading historical data...

Documentation

Showing up to 5 results
|